XRISM

Last updated on Thu Nov 21 2024 00:02:13 GMT+0000 (Coordinated Universal Time)

1 57800U 23137A 24325.60260409 .00009162 00000+0 63283-3 0 9991 2 57800 31.0024 94.7876 0008556 325.8927 34.1159 15.04459231 66158
UTC large
Height (km)
Speed (km/s)
/
Latitude / Longitude
Inclination (degrees)
Orbital Period (minutes)
Azimuth
Elevation
Range (km)
Doppler Factor

Next 0 passes for location: London (51.5072 / 0.1276)

Sorry there are no passes over London.